Weather History for NW Arkansas Airport, AR

Change the Weather History Date:

Wednesday, January 29, 2014

  Actual Average Record
Temperature  
Mean Temperature 23 °F -  
Max Temperature 37 °F - - ()
Min Temperature 9 °F - - ()
Degree Days  
Heating Degree Days 42    
Moisture  
Dew Point 5 °F    
Average Humidity 47    
Maximum Humidity 77    
Minimum Humidity 26    
Precipitation  
Precipitation 0.00 in - - ()
Sea Level Pressure  
Sea Level Pressure 30.28 in    
Wind  
Wind Speed 8 mph (SSW)    
Max Wind Speed 16 mph    
Max Gust Speed 24 mph    
Visibility 10 miles    
Events      
T = Trace of Precipitation, MM = Missing Value Source: NWS Daily Summary

Daily Weather History Graph

Daily Weather History Graph

Search for Another Location

Airport:

Trip Planner

Search our weather history database for the weather conditions in past years. The results will help you decide how hot, cold, wet, or windy it might be!

Date:

Astronomy

Jan. 29, 2014 Rise Set
Actual Time 7:20 AM CST 5:40 PM CST
Civil Twilight 6:53 AM CST 6:07 PM CST
Nautical Twilight 6:22 AM CST 6:38 PM CST
Astronomical Twilight 5:52 AM CST 7:09 PM CST
Moon 5:57 AM CST (1/29) 4:40 PM CST (1/29)
Length of Visible Light 11h 14m
Length of Day
10h 19m
Waning Crescent, 2% of the Moon is Illuminated
Jan 29
Waning Crescent
Jan 30
New
Feb 6
First Quarter
Feb 14
Full
Feb 22
Last Quarter

Hourly Weather History & Observations

Time (CST) Temp. Windchill Dew Point Humidity Pressure Visibility Wind Dir Wind Speed Gust Speed Precip Events Conditions
12:53 AM 14.0 °F 5.1 °F 1.0 °F 56% 30.38 in 10.0 mi SSW 5.8 mph - N/A   Clear
1:53 AM 14.0 °F 3.9 °F 3.9 °F 64% 30.37 in 10.0 mi West 6.9 mph - N/A   Clear
2:53 AM 15.1 °F 7.7 °F 6.1 °F 68% 30.37 in 10.0 mi WSW 4.6 mph - N/A   Clear
3:53 AM 14.0 °F 6.5 °F 6.1 °F 71% 30.36 in 10.0 mi SW 4.6 mph - N/A   Clear
4:53 AM 9.0 °F - 3.0 °F 77% 30.36 in 10.0 mi Calm Calm - N/A   Clear
5:53 AM 10.9 °F - 3.0 °F 70% 30.36 in 10.0 mi Calm Calm - N/A   Clear
6:53 AM 12.0 °F 4.1 °F 3.0 °F 67% 30.37 in 10.0 mi SSW 4.6 mph - N/A   Clear
7:53 AM 12.9 °F 6.9 °F 3.9 °F 67% 30.37 in 10.0 mi SSW 3.5 mph - N/A   Clear
8:53 AM 19.0 °F 9.0 °F 9.0 °F 65% 30.37 in 10.0 mi SSW 8.1 mph - N/A   Clear
9:53 AM 26.1 °F 15.0 °F 8.1 °F 47% 30.38 in 10.0 mi SSW 12.7 mph 18.4 mph N/A   Clear
10:53 AM 30.9 °F 20.7 °F 6.1 °F 35% 30.37 in 10.0 mi SW 13.8 mph - N/A   Clear
11:53 AM 35.1 °F 26.4 °F 7.0 °F 31% 30.35 in 10.0 mi SSW 12.7 mph - N/A   Clear
12:53 PM 37.0 °F 28.5 °F 6.1 °F 28% 30.30 in 10.0 mi SSW 13.8 mph 19.6 mph N/A   Clear
1:53 PM 37.0 °F 28.1 °F 5.0 °F 26% 30.28 in 10.0 mi SSW 15.0 mph 20.7 mph N/A   Clear
2:53 PM 37.9 °F 29.6 °F 6.1 °F 27% 30.25 in 10.0 mi SSW 13.8 mph 20.7 mph N/A   Clear
3:53 PM 37.0 °F 28.5 °F 6.1 °F 28% 30.24 in 10.0 mi SW 13.8 mph - N/A   Clear
4:53 PM 36.0 °F 28.0 °F 5.0 °F 27% 30.23 in 10.0 mi SSW 11.5 mph - N/A   Clear
5:53 PM 32.0 °F 24.2 °F 6.1 °F 34% 30.19 in 10.0 mi South 9.2 mph - N/A   Clear
6:53 PM 28.9 °F 20.4 °F 6.1 °F 38% 30.18 in 10.0 mi South 9.2 mph - N/A   Clear
7:53 PM 26.1 °F 16.8 °F 6.1 °F 43% 30.16 in 10.0 mi SSE 9.2 mph - N/A   Clear
8:53 PM 26.1 °F 17.6 °F 6.1 °F 43% 30.14 in 10.0 mi South 8.1 mph - N/A   Clear
9:53 PM 28.9 °F 19.2 °F 6.1 °F 38% 30.12 in 10.0 mi South 11.5 mph - N/A   Clear
10:53 PM 30.9 °F 19.8 °F 5.0 °F 33% 30.10 in 10.0 mi South 16.1 mph 24.2 mph N/A   Clear
11:53 PM 28.0 °F 18.1 °F 5.0 °F 38% 30.08 in 10.0 mi South 11.5 mph - N/A   Clear